Location: Ciula Mare
(45.6000°N, 22.8167°E)
Time: 10:24:27
(UTC+00:00)

CZ-4B R/B - Pass Details

Date: 03 February 2023
Orbit: 809 x 881 km, 99.0° (Epoch: 20 March)

Event Time Altitude Azimuth Distance (km) Brightness Sun altitude
Rises 17:47:19 0° 177° (S) 3,328 6.3 -22.9°
Reaches altitude 10° 17:49:41 10° 181° (S) 2,407 5.6 -23.3°
Maximum altitude 17:54:54 55° 259° (W) 993 3.8 -24.2°
Drops below altitude 10° 18:00:15 10° 337° (NNW) 2,466 5.9 -25.2°
Sets 18:02:42 0° 342° (NNW) 3,417 6.6 -25.6°
